Погода в Бирзаи

Погода в Бирзаи : погода сейчас, прогноз погоды и архив. Всё, что Вы хотите узнать о погоде в Бирзаи!

Поиск расширенной информации на нашем сайте:

Другие новости

Новости СМИ2

Главная страница сайта

Новости сайта

03.07.2017

Напоминаем, что на нашем специализированном сайте Метеоцентр.Азия вы можете получить высокодетализированные автоматические прогнозы погоды по пунктам России, СНГ и мира в авиационном формате (включающие направление и скорость ветра, видимость, явления погоды, количество и форму облачности, нижнюю и верхнюю границу облачности).


Погода в Бирзаи - сегодня

Время (UTC), дата Ветер
(°,м/с) 
Видим.   Явления Облачность Т
(°С)
Тd
(°С)
f(%) Тe
(°С)
Pmin
(гПа)
dP
(гПа)
Po
(мм)
O2
(г/м3)
Тmin Tmax R s Состояние
почвы
15 17.10.17 230 (ЮЗ) 4-9{10}  16000 м    8/4 420 м средняя 
[St|Ac trans]
+13 +11.1 88 +16  1014.2  -2.7  755  288           
18 17.10.17 240 (ЮЗ) 4-10{10}  4900 м  дымка  10/10 450 м 
[Sc]
+13.8 +12.5 92 +18  1012.3  -1.9  754  286    +13.9       
21 17.10.17 260 (З) 3-6{10}  7000 м  дымка  10/6 600 м средняя 
[Sc|Ac trans]
+13.7 +12.2 91 +18  1011.4  -0.9  753  286           
00 18.10.17 250 (З) 4-8{12}  13000 м    10/10 600 м 
[Sc]
+11.5 +9.3 86 +11  1010.9  -0.5  753  289           
03 18.10.17 250 (З) 3-7{08}  12000 м    9/5 960 м средняя 
[Sc|Ac trans]
+10.5 +8.9 90 +10  1010.1  -0.9  752  289           
06 18.10.17 240 (ЮЗ) 3-8{08}  13000 м    6/0 средняя 
[Ac und]
+10.3 +8.2 87 +10  1009.6  -0.4  752  290  +10.2        влажная 
09 18.10.17 260 (З) 5-9{11}  17000 м    9/9 1260 м 
[Sc]
+12 +9 82 +11  1010  0.4  752  288           
12 18.10.17 270 (З) 5-10{13}  19000 м    9/9 630 м 
[Sc]
+13.1 +9.4 78 +12  1010.7  0.7  752  288           
15 18.10.17 270 (З) 3-6{11}  15000 м    9/9 480 м 
[Sc]
+12.1 +9.9 86 +13  1011.6  0.9  753  288           
18 18.10.17 300 (СЗ) 1-3{08}  20000 м  {ливн. осадки}  10/10 930 м 
[Sc]
+9.7 +8.9 95 +11  1013.9  2.2  755  291    +13.2     
21 18.10.17 290 (З) 1-2{05}  9000 м  дымка  ясно 
+6.3 +5.6 95 +7  1015.7  1.7  756  296           
00 19.10.17 тихо () -2{03}  17000 м    ясно 
+4.3 +3.8 97 +4  1017.1  1.3  757  300           
03 19.10.17 тихо () -2{02}  2100 м  дымка  4/0 верхняя 
[Ci fib]
+2.2 +1.9 98 +2  1017.8  0.7  757  302           
06 19.10.17 тихо () -1{02}  0100 м  туман  3/0 верхняя 
[Ci fib]
+0.6 +0.6 100 +1  1019.1  1.2  758  304  +0.2        влажная 
09 19.10.17 250 (З) 1-2{03}  18000 м  {туман}  ясно 
+8.5 +6.5 87 +10  1020.2  1.3  759  295           
12 19.10.17 350 (С) 1-3{04}  20000 м  {туман}  4/4 1300 м 
[Cu med, cong]
+11.1 +5.8 70 +12  1020.3  0.2  760  293           
15 19.10.17 тихо () -2{05}  11000 м    3/3 1000 м 
[Sc diur, vesp]
+10.1 +5 71 +10  1020.6  0.2  760  294           
18 19.10.17 тихо () -0{02}  2400 м  дымка  ясно 
+3.2 +2.4 94 +3  1021.5  0.8  760  302    +11.7       
21 19.10.17 тихо () -0{02}  7000 м  местами туман поземный  ясно 
+0.9 +0.9 100 +1  1022.4  0.8  761  305           
00 20.10.17 тихо () -0{02}  3900 м  местами туман поземный  ясно 
+0 +0 100 1023  0.6  761  307           
03 20.10.17 тихо () -1{01}  7000 м  в посл. час туман [диам. гололёда 1 мм]  ясно 
-0.9 -0.9 100 -1  1023.2  0.1  761  307           
06 20.10.17 тихо () -1{02}  7000 м  дымка{туман} [диам. гололёда 1 мм]  3/0 верхняя 
[Ci sp]
-0.8 -0.8 100 -1  1023.7  0.5  762  307  -1.2        замёрзшая 
09 20.10.17 130 (ЮВ) 1-2{02}  19000 м  [диам. гололёда 0 мм]  1/0 верхняя 
[Ci sp]
+8.5 +5.6 82 +10  1023.6  0.2  762  296           
12 20.10.17 120 (ЮВ) 1-3{04}  19000 м    9/3 1000 м средняя, верхняя 
[Cu med, cong|Ac trans|Ci sp]
+9.6 +4 68 +11  1022.8  -0.8  761  296           
15 20.10.17 тихо () -1{04}  20000 м    9/0 средняя 
[Ac As]
+8.3 +4 74 +8  1022.2  -0.6  761  296           
Время (UTC), дата Ветер
(°,м/с) 
Видим.   Явления Облачность Т
(°С)
Тd
(°С)
f(%) Тe
(°С)
Pmin
(гПа)
dP
(гПа)
Po
(мм)
O2
(г/м3)
Тmin Tmax R s Состояние
почвы

Для получения пояснительной информации подведите курсор к названию столбца.

ПОГОДА в Бирзаи - архив

Всё, что Вы хотите узнать о погоде в Бирзаи - удобно и подробно!

Выберите нужную дату (начиная с 1 января 2015* года) и нажмите кнопку "Найти".
Будут отображены архивные сводки погоды по пункту Бирзаи, начиная с указанной даты.


Отображать данные в формате CSV (для использования в таблицах Excel)


Внимание! Наш архив погоды предназначен исключительно для личного некоммерческого использования в познавательных целях. Если Вам необходимы официальные справки о состоянии погоды (для производственных, юридических, коммерческих и т.п. целей), обращайтесь в органы Росгидромета.

*Примечание: данная дата относится к архиву по метеостанциям СССР (Россия, СНГ, Балтия).
Архив по метеостанциям Зарубежной Европы и Азии (кроме Китая) хранится 10 дней, по другим регионам земного шара (Китай, Африка, Америка, Австралия, Океания) - 1 день.

Бирзаи - район местоположения метеостанции


Название, широта, долгота, высота метеостанции:
Бирзаи 56.2°ш. 24.8°д. 62 м над ур. моря [Литва]

Дополнительная информация

В oтличие oт бoльшинства пoгoдных сайтoв мы публикуем пoдрoбную метеoинфoрмацию в детальнoм прoфессиoнальнoм фoрмате.

Характеристики температуры и влажнoсти вoздуха измеряются на высoте 2 м в тени вдали oт зданий и деревьев.
Скoрoсть ветра измеряется на высoте 10 м (на урoвне рoста челoвека скoрoсть ветра ниже в 1.5-2 раза). Если метеoстанция нахoдится в гoрoде или в лесу, тo скoрoсть ветра занижена на 2-4 м/с пo сравнению с oткрытым местoм. Скoрoсть ветра над акватoриями крупных рек и oзёр, а также на вершинах хoлмoв на 2-5 м/с выше, чем в oбычных услoвиях.
Атмoсфернoе давление в разных тoчках местнoсти мoжет значительнo oтличаться oт давления на метеoстанции, в зависимoсти oт услoвий рельефа (при пoдъёме на 10 м давление пoнижается примернo на 1 мм рт.ст.).